FW0979 Weather Reports


time (UTC)temp
F
wind
direction
speed
knots
gust
knots
rain 1hr
in
rain 24hr
in
rain mn
in
humidity
%
barometer
mb
20260506044542 66 360 2.6 4.3 0.00 0.00 0.00 44 1004.7
20260506043049 66 287 2.6 5.2 0.00 0.00 0.00 43 1004.7
20260506041545 67 360 4.3 7.0 0.00 0.00 0.00 42 1004.4
20260506040047 67 360 1.7 4.3 0.00 0.00 0.00 43 1004.5
20260506034540 67 295 2.6 5.2 0.00 0.00 0.00 43 1004.5
20260506033038 67 297 2.6 6.1 0.00 0.00 0.00 42 1004.2
20260506031539 68 312 5.2 8.7 0.00 0.00 0.00 41 1003.8
20260506030037 69 293 5.2 8.7 0.00 0.00 0.00 39 1003.7
20260506024543 70 281 5.2 8.7 0.00 0.00 0.00 37 1003.8
20260506023036 71 360 7.0 13.0 0.00 0.00 0.00 36 1003.8
20260506021550 72 360 7.8 13.0 0.00 0.00 0.00 35 1003.5
20260506020034 72 277 9.6 12.2 0.00 0.00 0.00 34 1003.4
20260506014534 72 290 8.7 15.6 0.00 0.00 0.00 34 1003.3
20260506013033 72 284 7.8 13.0 0.00 0.00 0.00 33 1003.1
20260506011533 73 276 11.3 16.5 0.00 0.00 0.00 33 1002.9
20260506010044 73 289 11.3 15.6 0.00 0.00 0.00 32 1002.8
20260506004530 74 360 12.2 20.0 0.00 0.00 0.00 31 1002.8
20260506003030 75 276 13.9 21.7 0.00 0.00 0.00 31 1002.9
20260506001528 75 297 13.0 20.9 0.00 0.00 0.00 30 1002.8
20260506000028 76 294 17.4 26.9 0.00 0.00 0.00 30 1002.9
20260505234535 76 264 13.9 23.5 0.00 0.00 0.00 29 1002.7
20260505233029 77 283 13.0 25.2 0.00 0.00 0.00 28 1002.6
20260505231529 78 302 19.1 29.5 0.00 0.00 0.00 27 1002.4
20260505230024 77 245 8.7 17.4 0.00 0.00 0.00 27 1002.3
20260505224527 77 259 8.7 16.5 0.00 0.00 0.00 27 1002.4
20260505223019 76 269 10.4 16.5 0.00 0.00 0.00 28 1002.5
20260505221617 76 360 9.6 19.1 0.00 0.00 0.00 28 1002.6
20260505220013 75 274 10.4 19.1 0.00 0.00 0.00 29 1002.7
20260505214514 75 283 8.7 19.1 0.00 0.00 0.00 28 1003.1
20260505213016 75 360 10.4 19.1 0.00 0.00 0.00 27 1003.3
20260505211527 75 284 13.0 23.5 0.00 0.00 0.00 26 1003.6
20260505210011 76 272 11.3 21.7 0.00 0.00 0.00 27 1003.7
20260505204508 75 265 10.4 20.0 0.00 0.00 0.00 28 1003.4
20260505203004 75 360 10.4 16.5 0.00 0.00 0.00 27 1003.5
20260505201506 75 266 9.6 17.4 0.00 0.00 0.00 29 1003.7
20260505200003 75 281 12.2 20.0 0.00 0.00 0.00 29 1003.8
20260505194504 75 276 11.3 19.1 0.00 0.00 0.00 29 1003.8
20260505193001 75 252 7.8 15.6 0.00 0.00 0.00 30 1003.8
20260505191602 75 277 9.6 15.6 0.00 0.00 0.00 30 1003.9
20260505190057 75 272 7.8 13.9 0.00 0.00 0.00 30 1004.1
20260505184558 74 360 7.8 13.9 0.00 0.00 0.00 29 1004.2
20260505183057 75 277 7.0 13.0 0.00 0.00 0.00 28 1004.5
20260505181553 75 243 5.2 11.3 0.00 0.00 0.00 29 1004.6
20260505180057 74 248 4.3 10.4 0.00 0.00 0.00 29 1004.4
20260505174549 74 261 5.2 11.3 0.00 0.00 0.00 29 1004.5
20260505173047 74 274 4.3 7.0 0.00 0.00 0.00 30 1004.4
20260505171546 74 290 4.3 7.8 0.00 0.00 0.00 31 1004.6
20260505170044 73 360 5.2 8.7 0.00 0.00 0.00 32 1004.9
20260505164542 73 285 5.2 10.4 0.00 0.00 0.00 32 1004.8
20260505163040 73 296 7.0 10.4 0.00 0.00 0.00 32 1004.9
20260505161540 73 284 6.1 9.6 0.00 0.00 0.00 32 1004.7
20260505153034 71 274 4.3 8.7 0.00 0.00 0.00 34 1004.8
20260505151539 70 360 3.5 7.0 0.00 0.00 0.00 35 1004.6
20260505124515 68 288 3.5 7.0 0.00 0.00 0.00 33 1003.1
20260505123013 68 290 4.3 7.8 0.00 0.00 0.00 31 1003.1
20260505121511 69 290 5.2 7.8 0.00 0.00 0.00 30 1002.9
20260505120014 69 283 6.1 11.3 0.00 0.00 0.00 30 1002.7
20260505114511 67 288 7.0 12.2 0.00 0.00 0.00 32 1002.4
20260505113008 66 290 4.3 7.8 0.00 0.00 0.00 37 1002.5
20260505111519 67 279 5.2 7.8 0.00 0.00 0.00 36 1002.2
20260505101515 67 281 8.7 13.9 0.00 0.00 0.00 33 1002.3
20260505100005 67 266 7.8 13.0 0.00 0.00 0.00 35 1002.5
20260505094503 66 268 5.2 9.6 0.00 0.00 0.00 37 1002.3
20260505093004 65 270 5.2 8.7 0.00 0.00 0.00 39 1002.2
20260505091501 65 249 3.5 7.0 0.00 0.00 0.00 40 1002.2
20260505090104 66 255 2.6 6.1 0.00 0.00 0.00 39 1002.3
20260505084607 65 263 3.5 8.7 0.00 0.00 0.00 40 1002.4
20260505083107 65 259 2.6 6.1 0.00 0.00 0.00 41 1002.5
20260505081556 66 261 2.6 5.2 0.00 0.00 0.00 40 1002.6
20260505080050 67 262 2.6 7.0 0.00 0.00 0.00 37 1002.6
20260505074548 67 267 4.3 7.0 0.00 0.00 0.00 37 1002.6
20260505073044 67 258 2.6 6.1 0.00 0.00 0.00 37 1002.5
20260505071539 68 256 3.5 6.1 0.00 0.00 0.00 36 1002.7
20260505070036 69 256 3.5 6.1 0.00 0.00 0.00 35 1002.7
20260505064526 70 259 4.3 9.6 0.00 0.00 0.00 32 1002.9
20260505063020 71 264 6.1 10.4 0.00 0.00 0.00 31 1003.0
20260505061519 71 269 6.1 11.3 0.00 0.00 0.00 30 1002.9
20260505060010 71 278 7.8 13.0 0.00 0.00 0.00 30 1003.0